Location: Unspecified
(0.0000°N, 0.0000°E)
Time: 07:02:35
(UTC+00:00)

Transit 4A - Pass Details

Date: 29 May 2022
Orbit: 864 x 980 km, 66.8° (Epoch: 24 June)

Event Time Altitude Azimuth Distance (km) Brightness Sun altitude
Rises 13:20:51 0° 341° (NNW) 3,536 11.3 60.3°
Reaches altitude 10° 13:23:23 10° 341° (NNW) 2,579 10.8 59.9°
Maximum altitude 13:29:22 87° 72° (ENE) 891 9.1 58.8°
Drops below altitude 10° 13:35:12 10° 160° (SSE) 2,522 10.0 57.8°
Sets 13:37:39 0° 160° (SSE) 3,453 10.6 57.3°
